Flag for Slovakia Weather past 2 weeks in Prešov, Slovakia

Now
68 °F

Clear.


Feels Like: 68 °F
Forecast: 59 / 79 °F
Wind: 1 mph from North

Location: Kosice - Barca

Current Time: Jul 29, 2014 at 12:36:56 AM

Latest Report: Jul 29, 2014 at 12:00 AM


Visibility: 10 mi

Pressure: 29.89 "Hg

Humidity: 88%

Dew point: 64 °F

Location of PrešovLocation

Historic Weather in Prešov — Graph

°F

Prešov temperature yesterday

Maximum temperature yesterday: 81 °F (at 11:03 AM)
Minimum temperature yesterday: 64 °F (at 3:00 AM)
Average temperature yesterday: 72 °F

Past Weeks' High & Low Weather Summary

 TemperatureHumidityPressure
High86 °F (Jul 20, 12:30 PM)100% (Jul 15, 2:00 AM)30.09 "Hg (Jul 15, 2:00 AM)
Low57 °F (Jul 15, 4:00 AM)31% (Jul 19, 6:00 PM)29.77 "Hg (Jul 21, 5:00 PM)
Average73 °F68%29.95 "Hg
* Reported Jul 13 11:00 PM — Jul 28 11:30 PM, Prešov, Weather by CustomWeather, © 2014

Note: Actual official high and low records may vary slightly from our data, if they occured in-between our weather recording intervals... More about our weather records

Advertising

Prešov weather history for previous 24 hours

 ConditionsComfort  
Time TempWeatherWind HumidityBarometerVisibility
11:30 PM
Jul 28
68 °FClear.3 mph88%29.89 "Hg10 mi
11:00 PM68 °FClear.2 mph88%29.89 "Hg10 mi
10:30 PM68 °FPassing clouds.3 mph88%29.89 "HgN/A
10:00 PM70 °FClear.5 mph88%29.89 "Hg10 mi
9:30 PM72 °FClear.2 mph78%29.89 "Hg10 mi
9:00 PM72 °FSunny.3 mph83%29.89 "Hg10 mi
8:30 PM73 °FSunny.1 mph74%29.89 "Hg10 mi
8:00 PM75 °FSunny.1 mph74%29.86 "Hg10 mi
7:30 PM75 °FPassing clouds.5 mph74%29.89 "HgN/A
7:00 PM75 °FPassing clouds.1 mph69%29.89 "HgN/A
6:30 PM75 °FPassing clouds.6 mph69%29.89 "HgN/A
6:00 PM77 °FPassing clouds.8 mph61%29.89 "HgN/A
5:30 PM81 °FPassing clouds.9 mph51%29.89 "HgN/A
5:00 PM79 °FPassing clouds.8 mph58%29.89 "HgN/A
4:30 PM81 °FPassing clouds.8 mph54%29.89 "HgN/A
4:00 PM81 °FPassing clouds.9 mph54%29.89 "HgN/A
3:30 PM81 °FScattered clouds.12 mph54%29.89 "HgN/A
3:00 PM79 °FPassing clouds.6 mph58%29.89 "HgN/A
2:30 PM79 °FPassing clouds.7 mph58%29.92 "HgN/A
2:00 PM79 °FPassing clouds.6 mph58%29.92 "HgN/A
1:30 PM79 °FPassing clouds.6 mph58%29.92 "HgN/A
1:00 PM79 °FPassing clouds.5 mph58%29.92 "HgN/A
12:30 PM77 °FSunny.2 mph61%29.95 "Hg10 mi
12:00 PM79 °FSunny.2 mph61%29.95 "Hg10 mi
11:30 AM77 °FSunny.5 mph61%29.95 "Hg10 mi
11:03 AM81 °FPassing clouds.8 mph54%29.95 "HgN/A
10:30 AM75 °FPassing clouds.5 mph65%29.95 "HgN/A
10:00 AM75 °FPassing clouds.5 mph65%29.95 "HgN/A
9:30 AM73 °FPassing clouds.7 mph69%29.95 "HgN/A
9:00 AM72 °FSunny.9 mph73%29.95 "Hg10 mi
8:30 AM72 °FSunny.9 mph73%29.95 "Hg10 mi
8:00 AM68 °FScattered clouds.8 mph83%29.95 "HgN/A
7:30 AM66 °FSprinkles. Broken clouds.6 mph88%29.95 "HgN/A
7:01 AM66 °FThunderstorms. Scattered clouds.7 mph83%29.95 "HgN/A
6:30 AM66 °FPassing clouds.6 mph83%29.95 "HgN/A
6:00 AM64 °FClear.5 mph83%29.95 "Hg10 mi
5:30 AM64 °FClear.9 mph83%29.92 "Hg10 mi
4:30 AM64 °FClear.2 mph83%29.95 "Hg10 mi
4:00 AM64 °FClear.8 mph88%29.95 "Hg10 mi
3:30 AM66 °FClear.8 mph83%29.95 "Hg10 mi
3:00 AM64 °FClear.7 mph88%29.95 "Hg10 mi
2:30 AM66 °FClear.9 mph83%29.95 "Hg10 mi
2:00 AM66 °FClear.8 mph78%29.98 "Hg10 mi
1:30 AM66 °FClear.7 mph83%29.98 "Hg10 mi
1:00 AM66 °FClear.8 mph83%29.98 "Hg10 mi
12:30 AM66 °FClear.9 mph83%29.98 "Hg10 mi
12:00 AM68 °FClear.7 mph78%29.98 "Hg10 mi
Weather by CustomWeather, © 2014

See weather overviewHow to use our weather pages